SIA894 WSSS-VHHH

Flight info

Callsign SIA894
Flight time N/A
Altitude 40000
Route VMR6A VMR M771 DUDIS/K0900F400 M771 DOSUT/N0485F400 M771 DULOP/N0484F410 Q1 CARSO/N0485F400 V551 BETTY
Aircraft A359/H-SDE1E2E3GHIJ1J2J3J5M1P2RWXYZ/LB1D1

Departure

Time 2026-05-04 09:55
Airport Singapore Changi Airport (WSSS)

Arrival

Time N/A
Airport Hong Kong International Airport (VHHH)
Time Latitude Longitude Altitude Speed Heading
2026-05-04 09:01 1.35289 103.98396 37 ft 0 kts 111°
2026-05-04 09:30 1.35291 103.98391 37 ft 3 kts 111°
2026-05-04 09:30 1.35298 103.98374 37 ft 3 kts 111°
2026-05-04 09:30 1.35307 103.98357 34 ft 3 kts 116°
2026-05-04 09:30 1.35315 103.98340 32 ft 3 kts 123°
2026-05-04 09:31 1.35329 103.98326 36 ft 3 kts 165°
2026-05-04 09:31 1.35340 103.98324 36 ft 0 kts 185°
2026-05-04 09:39 1.35330 103.98320 37 ft 6 kts 198°
2026-05-04 09:39 1.35313 103.98313 37 ft 0 kts 203°
2026-05-04 09:40 1.35307 103.98311 37 ft 7 kts 203°
2026-05-04 09:40 1.35240 103.98282 37 ft 10 kts 203°
2026-05-04 09:41 1.35179 103.98256 37 ft 8 kts 202°
2026-05-04 09:42 1.34719 103.97982 37 ft 9 kts 156°
2026-05-04 09:43 1.34691 103.98022 37 ft 7 kts 115°
2026-05-04 09:43 1.34658 103.98096 37 ft 14 kts 113°
2026-05-04 09:43 1.34616 103.98193 40 ft 15 kts 113°
2026-05-04 09:43 1.34581 103.98275 47 ft 10 kts 113°
2026-05-04 09:44 1.34555 103.98337 49 ft 11 kts 113°
2026-05-04 09:44 1.34522 103.98414 47 ft 13 kts 112°
2026-05-04 09:44 1.34482 103.98509 41 ft 13 kts 113°
2026-05-04 09:46 1.34095 103.98815 37 ft 12 kts 202°
2026-05-04 09:46 1.34010 103.98779 37 ft 15 kts 202°
2026-05-04 09:46 1.33920 103.98741 37 ft 14 kts 203°
2026-05-04 09:47 1.33827 103.98701 37 ft 13 kts 202°
2026-05-04 09:47 1.33740 103.98665 37 ft 12 kts 202°
2026-05-04 09:49 1.33135 103.98410 37 ft 10 kts 202°
2026-05-04 09:49 1.33121 103.98405 37 ft 2 kts 202°
2026-05-04 09:49 1.33101 103.98397 37 ft 5 kts 202°
2026-05-04 09:51 1.32944 103.98376 37 ft 0 kts 118°
2026-05-04 09:51 1.32936 103.98393 37 ft 5 kts 115°
2026-05-04 09:51 1.32914 103.98441 37 ft 9 kts 115°
2026-05-04 09:52 1.32911 103.98507 37 ft 10 kts 58°
2026-05-04 09:52 1.32944 103.98526 37 ft 0 kts 23°
2026-05-04 09:54 1.33005 103.98551 37 ft 39 kts 22°
2026-05-04 09:54 1.33494 103.98758 37 ft 111 kts 22°
2026-05-04 09:54 1.34385 103.99134 37 ft 168 kts 23°
2026-05-04 09:54 1.35551 103.99639 402 ft 191 kts 22°
2026-05-04 09:55 1.36810 104.00156 1050 ft 200 kts 21°
2026-05-04 09:55 1.38136 104.00675 1768 ft 207 kts 20°
2026-05-04 09:55 1.39488 104.01186 2448 ft 210 kts 20°
2026-05-04 09:55 1.40886 104.01783 2926 ft 226 kts 23°
2026-05-04 09:56 1.42365 104.02445 3365 ft 245 kts 23°
2026-05-04 09:56 1.43981 104.03154 3880 ft 260 kts 22°
2026-05-04 09:56 1.45660 104.03879 4620 ft 265 kts 22°
2026-05-04 09:56 1.47380 104.04593 5357 ft 270 kts 19°
2026-05-04 09:57 1.49229 104.04923 6090 ft 274 kts 357°
2026-05-04 09:57 1.51074 104.04462 6837 ft 275 kts 335°
2026-05-04 09:57 1.52789 104.03580 7601 ft 279 kts 331°
2026-05-04 09:57 1.54503 104.02632 8412 ft 283 kts 330°
2026-05-04 09:58 1.56237 104.01678 9223 ft 286 kts 331°
2026-05-04 09:58 1.57993 104.00719 10050 ft 290 kts 331°
2026-05-04 09:58 1.59807 103.99734 10547 ft 306 kts 332°
2026-05-04 10:00 1.75067 103.91677 13866 ft 379 kts 341°
2026-05-04 10:00 1.77634 103.91080 14395 ft 381 kts 355°
2026-05-04 10:02 1.96719 103.89851 18065 ft 405 kts 358°
2026-05-04 10:04 2.16893 103.88566 21192 ft 424 kts 358°
2026-05-04 10:04 2.19846 103.88378 21647 ft 427 kts 358°
2026-05-04 10:04 2.22821 103.88189 22108 ft 430 kts 358°
2026-05-04 10:04 2.25819 103.87998 22529 ft 434 kts 358°
2026-05-04 10:05 2.28842 103.87806 22973 ft 437 kts 358°
2026-05-04 10:05 2.31884 103.87612 23432 ft 439 kts 358°
2026-05-04 10:05 2.34946 103.87504 23767 ft 441 kts
2026-05-04 10:05 2.37999 103.87837 24119 ft 442 kts 13°
2026-05-04 10:06 2.40940 103.88734 24469 ft 443 kts 24°
2026-05-04 10:06 2.43691 103.90121 24844 ft 444 kts 31°
2026-05-04 10:06 2.46366 103.91699 25238 ft 447 kts 33°
2026-05-04 10:08 2.62455 104.01867 27833 ft 466 kts 33°
2026-05-04 10:08 2.65182 104.03566 28256 ft 469 kts 33°
2026-05-04 10:08 2.68004 104.05322 28691 ft 473 kts 33°
2026-05-04 10:08 2.70808 104.07065 29114 ft 476 kts 33°
2026-05-04 10:09 2.73627 104.08818 29516 ft 479 kts 33°
2026-05-04 10:09 2.76433 104.10564 29915 ft 483 kts 33°
2026-05-04 10:09 2.79294 104.12344 30246 ft 486 kts 33°
2026-05-04 10:09 2.82168 104.14133 30603 ft 488 kts 33°
2026-05-04 10:10 2.85057 104.15932 30956 ft 490 kts 33°
2026-05-04 10:10 2.87947 104.17731 31418 ft 489 kts 33°
2026-05-04 10:10 2.90831 104.19526 31956 ft 486 kts 33°
2026-05-04 10:10 2.93697 104.21310 32430 ft 485 kts 33°
2026-05-04 10:11 2.96556 104.23090 32853 ft 485 kts 33°
2026-05-04 10:11 2.99432 104.24882 33176 ft 487 kts 33°
2026-05-04 10:11 3.02315 104.26679 33443 ft 491 kts 33°
2026-05-04 10:11 3.05225 104.28492 33605 ft 496 kts 32°
2026-05-04 10:12 3.08161 104.30333 33779 ft 500 kts 33°
2026-05-04 10:12 3.11118 104.32207 33942 ft 504 kts 33°
2026-05-04 10:12 3.14076 104.34090 34193 ft 505 kts 33°
2026-05-04 10:12 3.17047 104.35967 34521 ft 504 kts 33°
2026-05-04 10:13 3.20022 104.37819 34857 ft 503 kts 32°
2026-05-04 10:13 3.23000 104.39659 35210 ft 502 kts 32°
2026-05-04 10:13 3.25966 104.41490 35548 ft 500 kts 32°
2026-05-04 10:13 3.28924 104.43318 35890 ft 499 kts 32°
2026-05-04 10:14 3.31874 104.45144 36215 ft 498 kts 33°
2026-05-04 10:14 3.34814 104.46967 36531 ft 497 kts 33°
2026-05-04 10:16 3.55339 104.59723 36855 ft 496 kts 33°
2026-05-04 10:16 3.58270 104.61543 36852 ft 496 kts 33°
2026-05-04 10:16 3.59218 104.62131 36852 ft 496 kts 33°